User: anonymous   Login
Location: Unspecified
(0.0000°N, 0.0000°E)
Time: 07:05:22
(UTC+00:00)
Language:

FUSE - Orbit

View from above orbital plane
View from above orbital plane
View from above satellite
View from above satellite

Ground track
Ground track

The orbit data is extracted from the following two-line orbital elements,

1 25791U 99035A   21340.74584120  .00000243  00000-0  18354-4 0  9995
2 25791  24.9847  91.9575 0010208 307.2540  52.7036 14.42861646184792
Epoch (UTC): 06 December 2021 17:54:00
Eccentricity: 0.0010208
inclination: 24.9847°
perigee height: 742 km
apogee height: 756 km
right ascension of ascending node: 91.9575°
argument of perigee: 307.2540°
revolutions per day: 14.42861646
mean anomaly at epoch: 52.7036°
orbit number at epoch: 18479

The dashed part of the orbit path shows where the satellite is in the earth's shadow,  

DLR